Track COSMOS 2407 now! 10-day predictions COSMOS 2407 is classified as:
1 28380U 04028A 22146.84014988 .00000095 00000-0 81659-4 0 9999 2 28380 82.9591 92.4285 0040807 77.7119 282.8604 13.76113599896185